Waarnemingen

Advertentie
Mijn weer
Aviano, Italië (16036): temperatuur & dauwpunt: 17.05.2018 22:00:00 - 23.05.2018 22:00:00 (CEST)Aviano, Italië (16036): windsnelheid: 17.05.2018 22:00:00 - 23.05.2018 22:00:00 (CEST)Aviano, Italië (16036): windrichting: 17.05.2018 22:00:00 - 23.05.2018 22:00:00 (CEST)Aviano, Italië (16036): luchtdruk: 17.05.2018 22:00:00 - 23.05.2018 22:00:00 (CEST)Aviano, Italië (16036): zicht: 17.05.2018 22:00:00 - 23.05.2018 22:00:00 (CEST)
Datum & Tijd tt [°C] td [°C] ff [km/u] ff [kn] dd ppp [hPa] vv [km]
23.05.2018 22:00:00 20,0 18,0 11 6 NNO - 10
23.05.2018 21:00:00 19,0 19,0 9 5 NO - 10
23.05.2018 20:00:00 20,0 18,3 8 4 WNW 1014,9 25
23.05.2018 19:00:00 20,0 19,0 11 6 ZZW - 10
23.05.2018 18:00:00 24,0 19,0 18 10 OZO - 10
23.05.2018 17:00:00 24,8 19,6 8 4 ZW 1014,3 25
23.05.2018 16:00:00 23,0 18,0 5 3 WZW - 10
23.05.2018 15:00:00 23,0 19,0 8 4 ZW - 10
23.05.2018 14:00:00 23,4 16,5 5 3 OZO 1015,8 25
23.05.2018 13:00:00 23,0 17,0 5 3 ONO - 10
23.05.2018 12:00:00 22,0 17,0 4 2 ZO - 10
23.05.2018 11:00:00 20,0 16,7 4 2 NNO 1016,0 25
23.05.2018 10:00:00 19,0 17,0 4 2 WZW - 10
23.05.2018 09:00:00 18,0 16,0 5 3 NNO - 10
23.05.2018 08:00:00 17,2 14,8 4 2 Z 1015,4 25
23.05.2018 07:00:00 16,0 14,0 5 3 ZZO - 10
23.05.2018 06:00:00 15,0 14,0 9 5 NO - 10
23.05.2018 05:00:00 - - - - - - -
23.05.2018 04:00:00 - - - - - - -
23.05.2018 03:00:00 - - - - - - -
23.05.2018 02:00:00 - - - - - - -
23.05.2018 01:00:00 - - - - - - -
23.05.2018 00:00:00 - - - - - - -
22.05.2018 23:00:00 - - - - - - -
22.05.2018 22:00:00 18,0 17,0 4 2 NO - 10
22.05.2018 21:00:00 19,0 16,0 8 4 NNO - 10
22.05.2018 20:00:00 19,0 16,4 11 6 NNO 1014,6 25
22.05.2018 19:00:00 20,0 17,0 11 6 NO - 10
22.05.2018 18:00:00 19,0 16,0 16 9 NO - 10
22.05.2018 17:00:00 17,8 16,0 16 9 N 1014,7 25
22.05.2018 16:00:00 19,0 16,0 9 5 O - 10
22.05.2018 15:00:00 19,0 15,0 16 9 NNO - 10
22.05.2018 14:00:00 18,4 16,4 18 10 NO 1014,3 30
22.05.2018 13:00:00 18,0 16,0 18 10 NO - 10
22.05.2018 12:00:00 17,0 17,0 13 7 NO - 10
22.05.2018 11:00:00 16,6 15,8 21 11 NO 1014,4 6
22.05.2018 10:00:00 17,0 16,0 18 10 NNO - 8
22.05.2018 09:00:00 18,0 17,0 8 4 O - 6
22.05.2018 08:00:00 19,6 14,0 9 5 O 1012,5 25
22.05.2018 07:00:00 18,0 14,0 13 7 NNO - 10
22.05.2018 06:00:00 17,0 14,0 13 7 NNO - 10
22.05.2018 05:00:00 - - - - - - -
22.05.2018 04:00:00 - - - - - - -
22.05.2018 03:00:00 - - - - - - -
22.05.2018 02:00:00 - - - - - - -
22.05.2018 01:00:00 - - - - - - -
22.05.2018 00:00:00 - - - - - - -
21.05.2018 23:00:00 - - - - - - -
21.05.2018 22:00:00 20,0 15,0 21 11 NNO - 10
21.05.2018 21:00:00 20,0 14,0 11 6 NO - 10
21.05.2018 20:00:00 21,8 12,4 28 15 WNW 1012,3 30
21.05.2018 19:00:00 25,0 13,0 4 2 OZO - 10
21.05.2018 18:00:00 25,0 12,0 11 6 O - 10
21.05.2018 17:00:00 24,8 12,4 8 4 OZO 1012,1 30
21.05.2018 16:00:00 25,0 12,0 16 9 O - 10
21.05.2018 15:00:00 25,0 13,0 11 6 ONO - 10
21.05.2018 14:00:00 25,0 12,9 15 8 NO 1013,8 30
21.05.2018 13:00:00 25,0 14,0 16 9 O - 10
21.05.2018 12:00:00 25,0 13,0 18 10 O - 10
21.05.2018 11:00:00 24,4 12,7 18 10 ONO 1015,2 25
21.05.2018 10:00:00 24,0 12,0 22 12 ONO - 10
21.05.2018 09:00:00 23,0 13,0 16 9 NO - 10
21.05.2018 08:00:00 22,0 12,8 16 9 NO 1015,5 25
21.05.2018 07:00:00 20,0 13,0 13 7 NO - 10
21.05.2018 06:00:00 19,0 12,0 15 8 NNO - 10
21.05.2018 05:00:00 - - - - - - -
21.05.2018 04:00:00 - - - - - - -
21.05.2018 03:00:00 - - - - - - -
21.05.2018 02:00:00 - - - - - - -
21.05.2018 01:00:00 - - - - - - -
21.05.2018 00:00:00 - - - - - - -
20.05.2018 23:00:00 - - - - - - -
20.05.2018 22:00:00 - - - - - - -
20.05.2018 21:00:00 - - - - - - -
20.05.2018 20:00:00 - - - - - - -
20.05.2018 19:00:00 - - - - - - -
20.05.2018 18:00:00 - - - - - - -
20.05.2018 17:00:00 - - - - - - -
20.05.2018 16:00:00 - - - - - - -
20.05.2018 15:00:00 - - - - - - -
20.05.2018 14:00:00 - - - - - - -
20.05.2018 13:00:00 - - - - - - -
20.05.2018 12:00:00 - - - - - - -
20.05.2018 11:00:00 - - - - - - -
20.05.2018 10:00:00 - - - - - - -
20.05.2018 09:00:00 - - - - - - -
20.05.2018 08:00:00 - - - - - - -
20.05.2018 07:00:00 - - - - - - -
20.05.2018 06:00:00 - - - - - - -
20.05.2018 05:00:00 - - - - - - -
20.05.2018 04:00:00 - - - - - - -
20.05.2018 03:00:00 - - - - - - -
20.05.2018 02:00:00 - - - - - - -
20.05.2018 01:00:00 - - - - - - -
20.05.2018 00:00:00 - - - - - - -
19.05.2018 23:00:00 - - - - - - -
19.05.2018 22:00:00 17,0 14,0 11 6 NNO - 10
19.05.2018 21:00:00 18,0 15,0 5 3 NNO - 10
19.05.2018 20:00:00 18,6 14,9 9 5 WNW 1015,9 25
19.05.2018 19:00:00 18,0 14,0 24 13 N - 10
19.05.2018 18:00:00 18,0 16,0 18 10 N - 10
19.05.2018 17:00:00 22,0 13,9 18 10 O 1015,5 25
19.05.2018 16:00:00 25,0 12,0 8 4 Z - 10
19.05.2018 15:00:00 24,0 13,0 13 7 ZW - 10
19.05.2018 14:00:00 24,2 12,2 9 5 WZW 1015,5 25
19.05.2018 13:00:00 24,0 11,0 5 3 OZO - 10
19.05.2018 12:00:00 24,0 11,0 5 3 Z - 10
19.05.2018 11:00:00 23,0 11,4 8 4 OZO 1016,1 35
19.05.2018 10:00:00 21,0 16,0 2 1 OZO - 10
19.05.2018 09:00:00 19,0 12,0 4 2 NNW - 10
19.05.2018 08:00:00 16,8 12,7 4 2 NW 1016,1 35
19.05.2018 07:00:00 14,0 12,0 5 3 NNO - 10
19.05.2018 06:00:00 13,0 12,0 8 4 NNO - 10
19.05.2018 05:00:00 - - - - - - -
19.05.2018 04:00:00 - - - - - - -
19.05.2018 03:00:00 - - - - - - -
19.05.2018 02:00:00 - - - - - - -
19.05.2018 01:00:00 - - - - - - -
19.05.2018 00:00:00 - - - - - - -
18.05.2018 23:00:00 - - - - - - -
18.05.2018 22:00:00 17,0 14,0 2 1 NNW - 10
18.05.2018 21:00:00 17,0 14,0 8 4 NO - 10
18.05.2018 20:00:00 17,0 13,7 2 1 N 1016,6 14
18.05.2018 19:00:00 18,0 15,0 9 5 ZW - 10
18.05.2018 18:00:00 20,0 13,0 15 8 O - 10
18.05.2018 17:00:00 23,2 13,1 9 5 WNW 1014,5 14
18.05.2018 16:00:00 23,0 13,0 11 6 WZW - 10
18.05.2018 15:00:00 23,0 13,0 16 9 W - 10
18.05.2018 14:00:00 22,6 13,7 9 5 ZZW 1016,2 18
18.05.2018 13:00:00 22,0 15,0 8 4 Z - 10
18.05.2018 12:00:00 20,0 15,0 9 5 ZZW - 10
18.05.2018 11:00:00 19,2 13,6 5 3 ZZO 1016,6 25
18.05.2018 10:00:00 18,0 14,0 8 4 Z - 10
18.05.2018 09:00:00 16,0 12,0 4 2 NW - 10
18.05.2018 08:00:00 14,2 12,1 2 1 N 1016,8 25
18.05.2018 07:00:00 13,0 11,0 4 2 ONO - 10
18.05.2018 06:00:00 13,0 11,0 5 3 N - 10
18.05.2018 05:00:00 - - - - - - -
18.05.2018 04:00:00 - - - - - - -
18.05.2018 03:00:00 - - - - - - -
18.05.2018 02:00:00 - - - - - - -
18.05.2018 01:00:00 - - - - - - -
18.05.2018 00:00:00 - - - - - - -
17.05.2018 23:00:00 - - - - - - -
17.05.2018 22:00:00 16,0 15,0 13 7 NNO - 10

tt = temperatuur
td = dauwpunt
ff = windsnelheid
dd = windrichting
ppp = luchtdruk
vv = zicht

Weerstations in de omgeving